TimeCST,TemperatureF,Dew PointF,Humidity,Sea Level PressureIn,VisibilityMPH,Wind Direction,Wind SpeedMPH,Gust SpeedMPH,PrecipitationIn,Events,Conditions,WindDirDegrees,DateUTC
6:00 AM,70,66,82,29.70,12,SSE,3.5,,,,Clear,150,2014-03-09 12:00:00
6:00 AM,69.8,66.2,88,29.93,-9999.0,SSE,3.5,-,N/A,,Clear,150,2014-03-09 12:00:00
7:00 AM,77.0,66.2,69,29.95,-9999.0,WSW,3.5,-,N/A,,Clear,250,2014-03-09 13:00:00
8:00 AM,80.6,66.2,61,29.97,-9999.0,NW,3.5,-,N/A,,Clear,320,2014-03-09 14:00:00
9:00 AM,86,65,40,29.74,12,ESE,4.6,,,,,120,2014-03-09 15:00:00
9:00 AM,86.0,64.4,48,29.98,-9999.0,ESE,4.6,-,N/A,,Clear,120,2014-03-09 15:00:00
10:00 AM,91.4,64.4,41,29.96,-9999.0,ENE,5.8,-,N/A,,Clear,70,2014-03-09 16:00:00
11:00 AM,93.2,62.6,36,29.94,-9999.0,East,10.4,-,N/A,,Clear,90,2014-03-09 17:00:00
12:00 PM,94,63,26,29.68,12,East,13.8,,,,Scattered Clouds,90,2014-03-09 18:00:00
12:00 PM,95.0,62.6,34,29.91,6.2,East,13.8,-,N/A,,Scattered Clouds,90,2014-03-09 18:00:00
1:00 PM,95.0,62.6,34,29.88,6.2,East,10.4,-,N/A,,Scattered Clouds,100,2014-03-09 19:00:00
2:00 PM,95.0,62.6,34,29.85,6.2,East,12.7,-,N/A,,Scattered Clouds,80,2014-03-09 20:00:00
3:00 PM,92,65,31,29.61,12,East,18.4,,,,Scattered Clouds,80,2014-03-09 21:00:00
3:00 PM,93.2,64.4,38,29.84,6.2,East,18.4,-,N/A,,Scattered Clouds,80,2014-03-09 21:00:00
4:00 PM,89.6,64.4,43,29.84,6.2,ENE,17.3,-,N/A,,Scattered Clouds,70,2014-03-09 22:00:00
5:00 PM,87.8,62.6,43,29.84,6.2,East,17.3,-,N/A,,Scattered Clouds,80,2014-03-09 23:00:00
6:00 PM,86,62,34,29.62,12,East,18.4,,,,Partly Cloudy,80,2014-03-10 00:00:00
6:00 PM,86.0,62.6,45,29.86,6.2,East,18.4,-,N/A,,Mostly Cloudy,80,2014-03-10 00:00:00
7:00 PM,84.2,60.8,45,29.87,6.2,East,17.3,-,N/A,,Scattered Clouds,90,2014-03-10 01:00:00
8:00 PM,82.4,59.0,45,29.89,6.2,East,13.8,-,N/A,,Scattered Clouds,80,2014-03-10 02:00:00